Terminal Aerodrome Forecast
Issued by NWS

Home | Current Version | Previous Version | Text Only | Print | Product List | Glossary On
Versions: 1 2 3 4 5 6 7 8 9 10 11 12 13 14 15
000
FTUS45 KRIW 221100
TAFBPI
TAF
KBPI 221134Z 2212/2312 VRB06KT P6SM BKN120
     FM221700 18012G18KT P6SM SCT070 BKN100
     FM222000 22024G34KT P6SM VCSH BKN070
     FM230300 28015G25KT P6SM VCSH BKN060
     FM230800 28014KT P6SM SCT100=

USA.gov is the U.S. government's official web portal to all federal, state and local government web resources and services.